記事タイトル:Comet C/2001 Q1 (NEAT) 

最新の情報は「更新」や「再読み込み」ボタンを押してリロードしてご覧ください。

書き込み欄へ  ヘルプ
お名前: 佐藤 裕久   
K. J. Lawrence, E. F. Helinと S. Pravdo(JPL)の通報によると、
Palomarの1.2-m Oschin Schmidt telescope による近地球小惑星追跡(NEAT)プログラムから
彗星を発見した。
視直径約3”の集光した核のある拡散状。
直ちにNEO Confirmation Pageに掲載され追跡された。Kelt天文台の8月18.9日UTの観測では、
拡散状で、全光度は18.0。
T. B. Spahr(小惑星センター)は、7月16.2日のLONEOSが観測していた天体と同定した。

発見位置、軌道要素と位置推算表は次のとおり、

     2001 UT             R.A. (2000) Decl.        m1
     Aug. 17.20219   20 57 12.27   - 8 04 17.1   18.8


Orbital elements:
    C/2001 Q1 (NEAT)
T 2001 Sept. 28.947 TT                                  Marsden
q   5.88368              (2000.0)            P               Q
                   Peri.  176.275       +0.738354       +0.294875
                   Node   139.109       -0.640236       +0.589138
e   1.0            Incl.   67.900       -0.211968       -0.752307
From 15 observations 2001 July 16-Aug. 18.

Ephemeris:
    C/2001 Q1 (NEAT)
Date    TT    R. A. (2000) Decl.     Delta      r     Elong.  Phase   m1 
2001 08 09    21 01.01   -06 50.4    4.893    5.895   170.3     1.7  18.2
2001 08 19    20 56.39   -08 20.6    4.906    5.891   165.3     2.5  18.2
2001 08 29    20 52.12   -09 51.2    4.952    5.888   155.9     4.0  18.2
2001 09 08    20 48.46   -11 19.7    5.027    5.886   145.5     5.6  18.2
2001 09 18    20 45.64   -12 43.7    5.130    5.884   135.0     6.9  18.2
2001 09 28    20 43.83   -14 01.5    5.257    5.884   124.6     8.1  18.3
2001 10 08    20 43.12   -15 12.1    5.401    5.884   114.3     8.9  18.4
2001 10 18    20 43.55   -16 15.0    5.560    5.885   104.3     9.4  18.4
2001 10 28    20 45.14   -17 09.9    5.726    5.887    94.5     9.7  18.5
2001 11 07    20 47.81   -17 57.0    5.896    5.890    84.9     9.6  18.6
2001 11 17    20 51.50   -18 36.9    6.064    5.894    75.5     9.3  18.6
2001 11 27    20 56.12   -19 10.0    6.226    5.899    66.3     8.8  18.7
2001 12 07    21 01.55   -19 37.1    6.378    5.904    57.3     8.1  18.7
2001 12 17    21 07.68   -19 58.8    6.517    5.910    48.4     7.2  18.8
2001 12 27    21 14.41   -20 16.0    6.640    5.917    39.8     6.1  18.8
2002 01 06    21 21.62   -20 29.4    6.744    5.925    31.3     4.9  18.9

(IAUC 7685、MPEC 2001-Q18)
[2001年8月19日 9時1分33秒]

この記事への返信をどうぞ。
氏名
E-mail URL



記事一覧に戻る